Portsmouth, NH

8:14 AM EST on December 18, 2017 (GMT -0500)
Pease International Tradeport

Weather History for KPSM - October, 2014

Change the Weather History Date:

Wednesday, October 1, 2014

  Actual Average Record
Temperature  
Mean Temperature 56 °F -  
Max Temperature 57 °F 63 °F 81 °F (1988)
Min Temperature 55 °F 43 °F 27 °F (1989)
Degree Days  
Heating Degree Days 9    
Growing Degree Days 6 (Base 50)    
Moisture  
Dew Point 54 °F    
Average Humidity 92    
Maximum Humidity 94    
Minimum Humidity 86    
Precipitation  
Precipitation 0.19 in - - ()
Sea Level Pressure  
Sea Level Pressure 30.09 in    
Wind  
Wind Speed 7 mph (NNE)    
Max Wind Speed 10 mph    
Max Gust Speed -    
Visibility 6 miles    
Events Rain    
Averages and records for this station are not official NWS values.
T = Trace of Precipitation, MM = Missing Value Source: NWS Daily Summary

Daily Weather History Graph

Daily Weather History Graph

Search for Another Location

Airport or City:

Trip Planner

Search our weather history database for the weather conditions in past years. The results will help you decide how hot, cold, wet, or windy it might be!

Date:

Astronomy

Oct. 01, 2014 Rise Set
Actual Time 6:40 AM EDT 6:24 PM EDT
Civil Twilight 6:12 AM EDT 6:52 PM EDT
Nautical Twilight 5:39 AM EDT 7:25 PM EDT
Astronomical Twilight 5:05 AM EDT 7:59 PM EDT
Moon 1:45 PM EDT (10/1) 11:46 PM EDT (10/1)
Length of Visible Light 12h 40m
Length of Day
11h 43m
Waxing Crescent, 48% of the Moon is Illuminated
Oct 1
Waxing Crescent
Oct 1
First Quarter
Oct 8
Full
Oct 15
Last Quarter
Oct 23
New

Hourly Weather History & Observations

Time (EDT) Temp. Dew Point Humidity Pressure Visibility Wind Dir Wind Speed Gust Speed Precip Events Conditions
12:39 AM 57.2 °F 53.6 °F 88% 30.05 in 10.0 mi NNE 6.9 mph - N/A Rain Light Rain
12:58 AM 57.0 °F 53.4 °F 88% 30.06 in 8.0 mi NE 6.9 mph - 0.00 in Rain Light Rain
1:13 AM 57.2 °F 53.6 °F 88% 30.05 in 8.0 mi NNE 5.8 mph - N/A Rain Light Rain
1:58 AM 57.2 °F 53.1 °F 86% 30.06 in 8.0 mi North 8.1 mph - 0.00 in   Overcast
2:58 AM 55.0 °F 53.4 °F 94% 30.03 in 2.5 mi NNE 6.9 mph - 0.00 in   Light Drizzle
3:14 AM 55.4 °F 53.6 °F 94% 30.01 in 3.0 mi NNE 9.2 mph - N/A   Overcast
3:58 AM 57.2 °F 53.1 °F 86% 30.04 in 8.0 mi North 8.1 mph - 0.00 in Rain Light Rain
4:58 AM 57.2 °F 53.6 °F 88% 30.03 in 10.0 mi North 5.8 mph - N/A   Overcast
5:58 AM 56.7 °F 53.2 °F 88% 30.06 in 10.0 mi NNE 5.8 mph - N/A   Overcast
6:58 AM 56.7 °F 53.2 °F 88% 30.07 in 8.0 mi NNE 6.9 mph - N/A   Overcast
7:58 AM 56.5 °F 53.4 °F 89% 30.08 in 8.0 mi NNE 6.9 mph - N/A   Overcast
8:58 AM 56.5 °F 53.6 °F 90% 30.09 in 3.0 mi North 10.4 mph - N/A   Overcast
9:58 AM 56.5 °F 54.3 °F 92% 30.11 in 10.0 mi North 10.4 mph - N/A   Overcast
10:58 AM 56.7 °F 54.3 °F 92% 30.11 in 4.0 mi NE 8.1 mph - 0.00 in   Light Drizzle
11:44 AM 57.2 °F 55.4 °F 94% 30.10 in 2.0 mi NNE 8.1 mph - N/A   Light Drizzle
11:58 AM 56.7 °F 54.7 °F 93% 30.11 in 1.0 mi NNE 10.4 mph - 0.01 in   Light Drizzle
12:58 PM 56.5 °F 54.9 °F 94% 30.11 in 1.0 mi NE 5.8 mph - 0.01 in   Light Drizzle
1:58 PM 56.3 °F 54.5 °F 94% 30.11 in 2.0 mi NNE 8.1 mph - 0.01 in Rain Light Rain
2:28 PM 57.2 °F 55.4 °F 94% 30.10 in 3.0 mi NNE 5.8 mph - N/A Rain Light Rain
2:58 PM 56.5 °F 54.7 °F 94% 30.10 in 4.0 mi NNE 5.8 mph - 0.06 in Rain Light Rain
3:58 PM 56.5 °F 54.9 °F 94% 30.09 in 3.0 mi NNE 4.6 mph - 0.06 in Rain Light Rain
4:58 PM 56.8 °F 54.9 °F 93% 30.10 in 7.0 mi NNE 6.9 mph - 0.03 in Rain Light Rain
5:58 PM 56.7 °F 54.7 °F 93% 30.11 in 7.0 mi NE 5.8 mph - 0.00 in   Overcast
6:58 PM 56.8 °F 54.9 °F 93% 30.13 in 10.0 mi NNE 6.9 mph - N/A   Overcast
7:58 PM 57.0 °F 55.0 °F 93% 30.13 in 5.0 mi NE 6.9 mph - N/A   Overcast
8:13 PM 57.2 °F 55.4 °F 94% 30.12 in 3.0 mi NE 6.9 mph - N/A   Light Drizzle
8:58 PM 56.8 °F 55.0 °F 94% 30.14 in 5.0 mi NNE 8.1 mph - 0.01 in   Light Drizzle
9:58 PM 56.7 °F 54.7 °F 93% 30.14 in 6.0 mi NNE 9.2 mph - 0.00 in   Light Drizzle
10:43 PM 57.2 °F 55.4 °F 94% 30.14 in 7.0 mi NNE 8.1 mph - N/A   Overcast
10:58 PM 56.5 °F 54.1 °F 92% 30.14 in 7.0 mi NNE 8.1 mph - 0.00 in   Overcast
11:28 PM 55.4 °F 53.6 °F 94% 30.13 in 7.0 mi North 10.4 mph - N/A   Overcast
11:58 PM 56.1 °F 53.8 °F 92% 30.15 in 7.0 mi NNE 9.2 mph - N/A   Overcast